Location: Melque
(41.0517°N, 4.4694°W)
Time: 21:10:25
(UTC+00:00)

NOSS 3-2 (C) - Visible Passes

Search period start: 16 March 2026 00:00
Search period end: 26 March 2026 00:00
Orbit: 672 x 1536 km, 63.4° (Epoch: 2 January)

Date Brightness Start Highest point End Pass type
(mag) Time Alt. Az. Time Alt. Az. Time Alt. Az.
16 Mar 5.8 01:20:39 10° NNW 01:30:15 19° ENE 01:33:15 10° E visible
16 Mar 4.0 03:10:45 10° NW 03:18:23 85° NE 03:27:26 10° SE visible
16 Mar 5.1 05:05:40 19° W 05:08:55 24° WSW 05:15:39 10° SSW visible
16 Mar 3.5 18:55:22 10° SW 19:00:13 65° NW 19:06:00 10° NNE visible
16 Mar 5.8 20:49:11 10° WNW 20:52:28 16° NNW 20:56:03 10° N visible
17 Mar 6.0 00:35:41 10° NNW 00:50:04 - E 00:39:02 18° NNE visible
17 Mar 5.5 02:25:32 10° NNW 02:37:44 28° ESE 02:41:42 10° SE visible
17 Mar 4.8 04:25:22 35° SW 04:25:22 35° SW 04:31:52 10° S visible
17 Mar 5.5 20:02:30 10° W 20:06:30 21° NNW 20:11:04 10° NNE visible
17 Mar 6.1 23:50:45 10° N 23:54:28 15° NNE 23:54:40 15° NNE visible
18 Mar 5.9 01:40:24 10° NNW 01:56:57 - ESE 01:42:02 18° NNW visible
18 Mar 5.6 03:44:34 22° S 03:44:34 22° S 03:47:22 10° SSE visible
18 Mar 4.9 19:16:13 10° WSW 19:20:43 31° NW 19:25:59 10° NNE visible
18 Mar 6.1 21:12:23 10° NNW 21:13:53 11° NNW 21:15:28 10° N visible
18 Mar 6.2 23:05:56 10° N 23:08:14 12° NNE 23:10:26 10° NE visible
19 Mar 5.9 00:55:20 10° NNW 00:57:48 20° N 00:57:48 20° N visible
19 Mar6.303:03:23SSE03:03:23SSE02:45:10NWvisible
19 Mar 6.0 20:24:58 10° NW 20:27:42 13° NNW 20:30:41 10° N visible
20 Mar 5.9 00:10:20 10° NNW 00:13:37 20° NNE 00:13:37 20° NNE visible
20 Mar 6.1 02:00:18 10° NNW 02:01:00 13° NNW 02:01:00 13° NNW visible
20 Mar 5.7 19:38:02 10° WNW 19:41:40 18° NNW 19:45:44 10° NNE visible
20 Mar 6.0 23:25:23 10° N 23:29:30 17° NNE 23:29:30 17° NNE visible
21 Mar 5.9 01:15:08 10° NNW 01:16:52 19° NNW 01:16:52 19° NNW visible
21 Mar 5.3 18:51:32 10° W 18:55:47 25° NW 19:00:42 10° NNE visible
21 Mar 6.1 22:40:29 10° N 22:43:35 13° NNE 22:45:23 12° NE visible
22 Mar 5.8 00:30:02 10° NNW 00:32:46 23° N 00:32:46 23° N visible
22 Mar 6.0 20:00:52 10° NW 20:03:00 12° NNW 20:05:16 10° N visible
22 Mar 6.2 21:55:47 10° N 21:57:19 11° NNE 21:58:55 10° NNE visible
22 Mar 5.7 23:45:00 10° NNW 23:48:41 23° NNE 23:48:41 23° NNE visible
23 Mar 6.0 01:35:06 10° NW 01:36:04 15° NW 01:36:04 15° NW visible
23 Mar 5.8 19:13:42 10° WNW 19:16:53 15° NNW 19:20:23 10° N visible
23 Mar 5.8 23:00:01 10° NNW 23:04:38 20° NNE 23:04:38 20° NNE visible
24 Mar 5.8 00:49:52 10° NNW 00:52:00 22° NNW 00:52:00 22° NNW visible
24 Mar 6.0 22:15:04 10° N 22:18:54 15° NNE 22:20:35 14° NE visible
25 Mar 5.6 00:04:44 10° NNW 00:07:58 27° N 00:07:58 27° N visible
25 Mar 6.0 19:36:58 10° NNW 19:38:19 11° NNW 19:39:44 10° N visible
25 Mar 6.1 21:30:13 10° N 21:32:40 12° NNE 21:35:16 10° NE visible
25 Mar 5.5 23:19:40 10° NNW 23:23:56 28° NNE 23:23:56 28° NNE visible
